| time (UTC) | temp F | wind direction | speed MPH | gust MPH | rain 1hr in | rain 24hr in | rain mn in | humidity % | barometer mb |
| 20260504050503 | 53 | 203 | 0.0 | 1.0 | 0.00 | 0.07 | 0.01 | 91 | 1011.2 |
| 20260504050003 | 53 | 284 | 0.0 | 1.0 | 0.00 | 0.07 | 0.01 | 91 | 1011.3 |
| 20260504045503 | 53 | 209 | 0.0 | 1.0 | 0.00 | 0.07 | 0.01 | 91 | 1011.0 |
| 20260504045003 | 53 | 225 | 0.0 | 3.0 | 0.00 | 0.07 | 0.01 | 91 | 1010.9 |
| 20260504044504 | 53 | 224 | 0.0 | 3.0 | 0.00 | 0.07 | 0.01 | 91 | 1010.8 |
| 20260504044003 | 53 | 234 | 0.0 | 3.0 | 0.00 | 0.07 | 0.01 | 91 | 1011.0 |
| 20260504043503 | 53 | 239 | 0.0 | 3.0 | 0.00 | 0.07 | 0.01 | 91 | 1010.8 |
| 20260504043003 | 53 | 212 | 0.0 | 1.0 | 0.00 | 0.07 | 0.01 | 92 | 1010.8 |
| 20260504042718 | 53 | 214 | 0.0 | 1.0 | 0.00 | 0.07 | 0.01 | 92 | 1010.7 |
| 20260504042003 | 53 | 222 | 0.0 | 3.0 | 0.00 | 0.07 | 0.01 | 92 | 1010.7 |
| 20260504041503 | 52 | 257 | 0.0 | 3.0 | 0.00 | 0.07 | 0.01 | 92 | 1010.8 |
| 20260504041216 | 52 | 230 | 0.0 | 4.0 | 0.00 | 0.07 | 0.01 | 92 | 1010.8 |
| 20260504040503 | 52 | 232 | 0.0 | 4.0 | 0.00 | 0.07 | 0.01 | 92 | 1010.9 |
| 20260504040003 | 52 | 262 | 0.0 | 5.0 | 0.00 | 0.07 | 0.01 | 92 | 1010.8 |
| 20260504035503 | 52 | 266 | 1.0 | 5.0 | 0.00 | 0.07 | 0.01 | 92 | 1010.6 |
| 20260504035216 | 53 | 264 | 1.0 | 5.0 | 0.00 | 0.07 | 0.01 | 92 | 1010.5 |
| 20260504034717 | 52 | 261 | 1.0 | 4.0 | 0.00 | 0.07 | 0.01 | 91 | 1010.5 |
| 20260504034003 | 53 | 251 | 1.0 | 5.0 | 0.00 | 0.07 | 0.01 | 91 | 1010.5 |
| 20260504033503 | 53 | 228 | 1.0 | 5.0 | 0.00 | 0.07 | 0.01 | 91 | 1010.7 |
| 20260504033003 | 53 | 249 | 1.0 | 7.0 | 0.00 | 0.07 | 0.01 | 91 | 1010.4 |
| 20260504032503 | 53 | 238 | 2.0 | 7.0 | 0.00 | 0.07 | 0.01 | 91 | 1010.4 |
| 20260504032003 | 53 | 223 | 2.0 | 7.0 | 0.00 | 0.07 | 0.01 | 91 | 1010.5 |
| 20260504031503 | 53 | 216 | 1.0 | 7.0 | 0.00 | 0.07 | 0.01 | 91 | 1010.6 |
| 20260504031218 | 53 | 219 | 1.0 | 7.0 | 0.00 | 0.07 | 0.01 | 91 | 1010.3 |
| 20260504030503 | 53 | 205 | 1.0 | 7.0 | 0.00 | 0.07 | 0.01 | 91 | 1010.4 |
| 20260504030003 | 53 | 246 | 2.0 | 11.0 | 0.00 | 0.07 | 0.01 | 91 | 1010.3 |
| 20260504025503 | 53 | 246 | 2.0 | 11.0 | 0.00 | 0.07 | 0.01 | 91 | 1010.4 |
| 20260504025003 | 53 | 214 | 2.0 | 11.0 | 0.00 | 0.07 | 0.01 | 91 | 1010.2 |
| 20260504024503 | 53 | 197 | 2.0 | 10.0 | 0.00 | 0.07 | 0.01 | 91 | 1010.0 |
| 20260504024003 | 53 | 219 | 1.0 | 8.0 | 0.00 | 0.07 | 0.01 | 91 | 1010.0 |
| 20260504023503 | 54 | 256 | 1.0 | 8.0 | 0.00 | 0.07 | 0.01 | 91 | 1009.8 |
| 20260504023003 | 54 | 261 | 1.0 | 8.0 | 0.00 | 0.07 | 0.01 | 91 | 1010.2 |
| 20260504022503 | 54 | 191 | 0.0 | 7.0 | 0.00 | 0.07 | 0.01 | 90 | 1010.0 |
| 20260504022003 | 54 | 202 | 1.0 | 8.0 | 0.00 | 0.07 | 0.01 | 90 | 1010.0 |
| 20260504021503 | 54 | 221 | 2.0 | 11.0 | 0.00 | 0.07 | 0.01 | 90 | 1010.0 |
| 20260504021003 | 54 | 228 | 2.0 | 11.0 | 0.00 | 0.07 | 0.01 | 90 | 1009.7 |
| 20260504020503 | 54 | 251 | 2.0 | 11.0 | 0.00 | 0.07 | 0.01 | 90 | 1010.0 |
| 20260504020218 | 55 | 253 | 2.0 | 11.0 | 0.00 | 0.07 | 0.01 | 91 | 1009.7 |
| 20260504015503 | 55 | 220 | 2.0 | 11.0 | 0.00 | 0.07 | 0.01 | 91 | 1009.8 |
| 20260504015218 | 55 | 212 | 1.0 | 10.0 | 0.00 | 0.07 | 0.01 | 91 | 1009.7 |
| 20260504014503 | 56 | 192 | 2.0 | 8.0 | 0.00 | 0.07 | 0.01 | 91 | 1009.7 |
| 20260504014003 | 56 | 227 | 3.0 | 8.0 | 0.00 | 0.07 | 0.01 | 92 | 1009.7 |
| 20260504013503 | 56 | 235 | 2.0 | 7.0 | 0.00 | 0.07 | 0.01 | 92 | 1009.7 |
| 20260504013003 | 56 | 265 | 1.0 | 7.0 | 0.00 | 0.07 | 0.01 | 92 | 1009.7 |
| 20260504012503 | 56 | 269 | 2.0 | 11.0 | 0.00 | 0.07 | 0.01 | 92 | 1009.8 |
| 20260504012003 | 56 | 245 | 2.0 | 11.0 | 0.00 | 0.07 | 0.01 | 92 | 1009.6 |
| 20260504011716 | 56 | 232 | 2.0 | 10.0 | 0.00 | 0.07 | 0.01 | 92 | 1009.4 |
| 20260504011003 | 57 | 227 | 2.0 | 7.0 | 0.00 | 0.07 | 0.01 | 93 | 1009.6 |
| 20260504010503 | 57 | 252 | 2.0 | 8.0 | 0.00 | 0.07 | 0.01 | 93 | 1009.4 |
| 20260504010003 | 57 | 270 | 2.0 | 8.0 | 0.00 | 0.07 | 0.01 | 93 | 1009.5 |
| 20260504005503 | 57 | 249 | 2.0 | 7.0 | 0.00 | 0.07 | 0.01 | 93 | 1009.5 |
| 20260504005003 | 57 | 218 | 1.0 | 5.0 | 0.00 | 0.07 | 0.01 | 93 | 1009.4 |
| 20260504004503 | 57 | 217 | 1.0 | 5.0 | 0.00 | 0.07 | 0.01 | 93 | 1009.4 |
| 20260504004003 | 57 | 223 | 1.0 | 10.0 | 0.00 | 0.07 | 0.01 | 93 | 1009.1 |
| 20260504003718 | 57 | 224 | 1.0 | 10.0 | 0.00 | 0.07 | 0.01 | 93 | 1009.5 |
| 20260504003003 | 57 | 228 | 1.0 | 5.0 | 0.00 | 0.07 | 0.01 | 93 | 1009.2 |
| 20260504002503 | 57 | 243 | 1.0 | 7.0 | 0.00 | 0.07 | 0.01 | 93 | 1009.5 |
| 20260504002003 | 57 | 254 | 1.0 | 7.0 | 0.00 | 0.07 | 0.01 | 93 | 1009.3 |
| 20260504001503 | 57 | 245 | 1.0 | 7.0 | 0.00 | 0.07 | 0.01 | 93 | 1009.1 |
| 20260504001003 | 57 | 230 | 1.0 | 7.0 | 0.00 | 0.07 | 0.01 | 93 | 1009.2 |
| 20260504000718 | 57 | 238 | 1.0 | 7.0 | 0.00 | 0.07 | 0.01 | 93 | 1009.3 |
| 20260504000003 | 57 | 243 | 1.0 | 11.0 | 0.00 | 0.07 | 0.01 | 93 | 1009.2 |
| 20260503235503 | 58 | 248 | 1.0 | 12.0 | 0.00 | 0.07 | 0.01 | 93 | 1009.2 |
| 20260503235003 | 57 | 237 | 2.0 | 12.0 | 0.00 | 0.07 | 0.01 | 94 | 1009.1 |
| 20260503234503 | 57 | 217 | 2.0 | 10.0 | 0.00 | 0.07 | 0.01 | 94 | 1009.1 |
| 20260503234217 | 57 | 219 | 1.0 | 5.0 | 0.00 | 0.07 | 0.01 | 93 | 1009.3 |
| 20260503233503 | 57 | 239 | 1.0 | 5.0 | 0.00 | 0.07 | 0.01 | 93 | 1009.1 |
| 20260503233003 | 58 | 211 | 1.0 | 7.0 | 0.00 | 0.07 | 0.01 | 93 | 1009.0 |
| 20260503232503 | 58 | 206 | 1.0 | 7.0 | 0.00 | 0.07 | 0.01 | 93 | 1009.2 |
| 20260503232003 | 58 | 199 | 1.0 | 4.0 | 0.00 | 0.07 | 0.01 | 94 | 1009.2 |
| 20260503231503 | 58 | 209 | 0.0 | 4.0 | 0.00 | 0.07 | 0.01 | 94 | 1009.2 |
| 20260503231216 | 58 | 220 | 0.0 | 4.0 | 0.01 | 0.07 | 0.01 | 94 | 1009.2 |
| 20260503230503 | 58 | 218 | 1.0 | 5.0 | 0.01 | 0.07 | 0.01 | 94 | 1009.1 |
| 20260503230216 | 58 | 228 | 1.0 | 7.0 | 0.01 | 0.07 | 0.01 | 94 | 1009.1 |
| 20260503225503 | 58 | 246 | 2.0 | 7.0 | 0.01 | 0.07 | 0.01 | 94 | 1009.1 |
| 20260503225003 | 58 | 245 | 1.0 | 5.0 | 0.01 | 0.07 | 0.01 | 94 | 1009.2 |
| 20260503224503 | 58 | 233 | 1.0 | 8.0 | 0.01 | 0.07 | 0.01 | 94 | 1009.2 |
| 20260503224003 | 58 | 220 | 1.0 | 8.0 | 0.01 | 0.07 | 0.01 | 94 | 1009.1 |
| 20260503223503 | 58 | 217 | 2.0 | 8.0 | 0.01 | 0.07 | 0.01 | 94 | 1008.9 |
| 20260503223003 | 58 | 221 | 3.0 | 11.0 | 0.01 | 0.07 | 0.01 | 93 | 1009.1 |
| 20260503222503 | 58 | 220 | 2.0 | 11.0 | 0.01 | 0.07 | 0.01 | 93 | 1009.0 |
| 20260503222003 | 58 | 210 | 1.0 | 8.0 | 0.01 | 0.07 | 0.01 | 93 | 1008.8 |
| 20260503221503 | 58 | 209 | 1.0 | 5.0 | 0.01 | 0.07 | 0.01 | 93 | 1009.0 |
| 20260503221003 | 58 | 217 | 0.0 | 7.0 | 0.00 | 0.06 | 0.00 | 93 | 1009.0 |
| 20260503220503 | 58 | 229 | 1.0 | 7.0 | 0.00 | 0.06 | 0.00 | 93 | 1009.0 |
| 20260503220003 | 58 | 237 | 1.0 | 7.0 | 0.00 | 0.06 | 0.00 | 93 | 1009.2 |
| 20260503215503 | 58 | 235 | 1.0 | 5.0 | 0.00 | 0.06 | 0.06 | 93 | 1009.1 |
| 20260503215218 | 58 | 223 | 1.0 | 5.0 | 0.00 | 0.06 | 0.06 | 92 | 1009.1 |
| 20260503214503 | 58 | 214 | 1.0 | 4.0 | 0.00 | 0.06 | 0.06 | 92 | 1009.0 |
| 20260503214003 | 58 | 220 | 0.0 | 3.0 | 0.00 | 0.06 | 0.06 | 92 | 1009.0 |
| 20260503213503 | 58 | 223 | 1.0 | 4.0 | 0.00 | 0.06 | 0.06 | 92 | 1009.1 |
| 20260503213003 | 58 | 220 | 1.0 | 4.0 | 0.00 | 0.06 | 0.06 | 92 | 1009.1 |
| 20260503212503 | 58 | 219 | 1.0 | 4.0 | 0.00 | 0.06 | 0.06 | 92 | 1009.3 |
| 20260503212003 | 58 | 216 | 0.0 | 3.0 | 0.00 | 0.06 | 0.06 | 92 | 1009.1 |
| 20260503211503 | 58 | 216 | 0.0 | 3.0 | 0.01 | 0.06 | 0.06 | 91 | 1009.0 |
| 20260503211003 | 58 | 214 | 0.0 | 3.0 | 0.01 | 0.06 | 0.06 | 91 | 1009.1 |
| 20260503210503 | 59 | 193 | 0.0 | 3.0 | 0.01 | 0.06 | 0.06 | 91 | 1009.1 |
| 20260503210003 | 59 | 205 | 0.0 | 3.0 | 0.02 | 0.06 | 0.06 | 91 | 1009.1 |
| 20260503205503 | 59 | 214 | 0.0 | 3.0 | 0.02 | 0.06 | 0.06 | 91 | 1009.2 |
| 20260503205003 | 59 | 220 | 0.0 | 3.0 | 0.02 | 0.06 | 0.06 | 91 | 1009.2 |
| 20260503204503 | 59 | 200 | 0.0 | 3.0 | 0.02 | 0.06 | 0.06 | 90 | 1009.0 |
| 20260503204003 | 59 | 205 | 0.0 | 3.0 | 0.02 | 0.06 | 0.06 | 90 | 1008.9 |
| 20260503203503 | 59 | 219 | 0.0 | 3.0 | 0.02 | 0.06 | 0.06 | 90 | 1009.1 |
| 20260503203003 | 59 | 228 | 0.0 | 3.0 | 0.02 | 0.06 | 0.06 | 90 | 1009.3 |
| 20260503202503 | 59 | 225 | 0.0 | 3.0 | 0.02 | 0.06 | 0.06 | 90 | 1009.2 |
| 20260503202218 | 60 | 222 | 0.0 | 5.0 | 0.02 | 0.06 | 0.06 | 90 | 1009.2 |
| 20260503201503 | 60 | 234 | 1.0 | 5.0 | 0.03 | 0.05 | 0.05 | 90 | 1009.2 |
| 20260503201003 | 60 | 237 | 0.0 | 4.0 | 0.03 | 0.05 | 0.05 | 89 | 1009.1 |
| 20260503200716 | 60 | 208 | 0.0 | 3.0 | 0.03 | 0.05 | 0.05 | 89 | 1009.1 |
| 20260503200003 | 60 | 200 | 0.0 | 3.0 | 0.03 | 0.04 | 0.04 | 89 | 1009.1 |
| 20260503195503 | 60 | 207 | 0.0 | 4.0 | 0.04 | 0.04 | 0.04 | 89 | 1009.1 |
| 20260503195003 | 60 | 205 | 1.0 | 4.0 | 0.04 | 0.04 | 0.04 | 89 | 1009.1 |
| 20260503194503 | 60 | 215 | 1.0 | 4.0 | 0.04 | 0.04 | 0.04 | 88 | 1009.0 |
| 20260503194003 | 60 | 230 | 1.0 | 4.0 | 0.04 | 0.04 | 0.04 | 88 | 1009.0 |
| 20260503193503 | 60 | 226 | 1.0 | 4.0 | 0.04 | 0.04 | 0.04 | 87 | 1009.0 |
| 20260503193003 | 60 | 214 | 0.0 | 1.0 | 0.03 | 0.03 | 0.03 | 87 | 1009.0 |
| 20260503192503 | 60 | 0 | 0.0 | 0.0 | 0.03 | 0.03 | 0.03 | 86 | 1008.7 |
| 20260503192003 | 61 | 0 | 0.0 | 0.0 | 0.03 | 0.03 | 0.03 | 86 | 1008.7 |
| 20260503191718 | 61 | 0 | 0.0 | 0.0 | 0.03 | 0.03 | 0.03 | 85 | 1008.6 |
| 20260503191003 | 61 | 0 | 0.0 | 0.0 | 0.02 | 0.02 | 0.02 | 85 | 1008.7 |
| 20260503190503 | 61 | 0 | 0.0 | 0.0 | 0.02 | 0.02 | 0.02 | 84 | 1008.6 |
| 20260503190003 | 61 | 0 | 0.0 | 0.0 | 0.01 | 0.01 | 0.01 | 84 | 1008.7 |
| 20260503185503 | 61 | 0 | 0.0 | 0.0 | 0.01 | 0.01 | 0.01 | 83 | 1008.5 |
| 20260503185003 | 61 | 0 | 0.0 | 0.0 | 0.00 | 0.00 | 0.00 | 83 | 1008.6 |
| 20260503184503 | 62 | 0 | 0.0 | 0.0 | 0.00 | 0.00 | 0.00 | 82 | 1008.4 |
| 20260503184003 | 62 | 0 | 0.0 | 0.0 | 0.00 | 0.00 | 0.00 | 82 | 1008.3 |
| 20260503183718 | 62 | 0 | 0.0 | 0.0 | 0.00 | 0.00 | 0.00 | 81 | 1008.3 |
| 20260503183003 | 62 | 0 | 0.0 | 0.0 | 0.00 | 0.00 | 0.00 | 80 | 1008.2 |
| 20260503182503 | 62 | 0 | 0.0 | 0.0 | 0.00 | 0.00 | 0.00 | 80 | 1008.4 |
| 20260503182003 | 62 | 0 | 0.0 | 0.0 | 0.00 | 0.00 | 0.00 | 80 | 1007.9 |
| 20260503181504 | 62 | 343 | 0.0 | 3.0 | 0.00 | 0.00 | 0.00 | 79 | 1007.9 |
| 20260503181003 | 63 | 284 | 0.0 | 3.0 | 0.00 | 0.00 | 0.00 | 78 | 1007.7 |
| 20260503180503 | 63 | 38 | 0.0 | 4.0 | 0.00 | 0.00 | 0.00 | 78 | 1007.6 |
| 20260503180003 | 63 | 52 | 0.0 | 4.0 | 0.00 | 0.00 | 0.00 | 78 | 1007.5 |
| 20260503175503 | 64 | 86 | 0.0 | 3.0 | 0.00 | 0.00 | 0.00 | 78 | 1007.5 |
| 20260503175003 | 64 | 180 | 0.0 | 4.0 | 0.00 | 0.00 | 0.00 | 78 | 1007.7 |
| 20260503174718 | 64 | 168 | 0.0 | 4.0 | 0.00 | 0.00 | 0.00 | 77 | 1007.8 |
| 20260503174003 | 65 | 196 | 1.0 | 5.0 | 0.00 | 0.00 | 0.00 | 77 | 1007.7 |
| 20260503173503 | 65 | 229 | 1.0 | 7.0 | 0.00 | 0.00 | 0.00 | 77 | 1007.9 |
| 20260503173003 | 66 | 85 | 1.0 | 7.0 | 0.00 | 0.00 | 0.00 | 77 | 1007.6 |
| 20260503172503 | 66 | 254 | 1.0 | 5.0 | 0.00 | 0.00 | 0.00 | 75 | 1007.2 |
| 20260503172003 | 66 | 298 | 1.0 | 4.0 | 0.00 | 0.00 | 0.00 | 75 | 1007.1 |
| 20260503171503 | 66 | 265 | 1.0 | 10.0 | 0.00 | 0.00 | 0.00 | 74 | 1006.8 |
| 20260503171003 | 67 | 13 | 2.0 | 10.0 | 0.00 | 0.00 | 0.00 | 73 | 1006.9 |
| 20260503170503 | 67 | 33 | 4.0 | 10.0 | 0.00 | 0.00 | 0.00 | 73 | 1006.3 |
| 20260503151003 | 72 | 75 | 1.0 | 5.0 | 0.00 | 0.00 | 0.00 | 63 | 1007.2 |
| 20260503150503 | 72 | 145 | 1.0 | 5.0 | 0.00 | 0.00 | 0.00 | 64 | 1007.1 |
| 20260503150217 | 72 | 171 | 1.0 | 5.0 | 0.00 | 0.00 | 0.00 | 64 | 1007.3 |
| 20260503131217 | 72 | 245 | 2.0 | 8.0 | 0.00 | 0.00 | 0.00 | 64 | 1009.4 |
| 20260503130503 | 71 | 225 | 2.0 | 7.0 | 0.00 | 0.00 | 0.00 | 65 | 1009.3 |
| 20260503120216 | 71 | 222 | 2.0 | 7.0 | 0.00 | 0.00 | 0.00 | 66 | 1009.8 |
| 20260503110504 | 72 | 205 | 2.0 | 5.0 | 0.00 | 0.00 | 0.00 | 66 | 1010.4 |
| 20260503090503 | 69 | 214 | 2.0 | 7.0 | 0.00 | 0.00 | 0.00 | 70 | 1011.3 |
| 20260503090217 | 70 | 225 | 2.0 | 8.0 | 0.00 | 0.00 | 0.00 | 70 | 1011.2 |
| 20260503081503 | 66 | 243 | 2.0 | 7.0 | 0.00 | 0.00 | 0.00 | 76 | 1011.2 |
| 20260503081003 | 66 | 235 | 2.0 | 7.0 | 0.00 | 0.00 | 0.00 | 76 | 1011.5 |
| 20260503080503 | 65 | 223 | 1.0 | 4.0 | 0.00 | 0.00 | 0.00 | 77 | 1011.5 |
| 20260503080217 | 65 | 195 | 1.0 | 5.0 | 0.00 | 0.00 | 0.00 | 77 | 1011.6 |